Tracking 23731 objects as of 26-Sep-2021
HD Live streaming from Space Station
objects crossing your sky now

STARLINK 1024

Track STARLINK 1024 now!
10-day predictions
STARLINK 1024 is classified as:


NORAD ID: 44729
Int'l Code: 2019-074S
Perigee: 549.8 km
Apogee: 551.4 km
Inclination: 53.0 °
Period: 95.5 minutes
Semi major axis: 6921 km
RCS: Unknown
Launch date: November 11, 2019
Source: United States (US)
Launch site: AIR FORCE EASTERN TEST RANGE (AFETR)
aabbcc
Your satellite tracking list
Your tracking list is empty




NASA's NSSDC Master Catalog

Two Line Element Set (TLE):
1 44729U 19074S   21269.37643854  .00004863  00000-0  33404-3 0  9995
2 44729  53.0006 300.4015 0001187 154.0960 206.0088 15.07625929103685
Source of the keplerian elements: AFSPC